Tillbaka till svenska Fidonet
English   Information   Debug  
FILM   0/18
FNEWS_PUBLISH   4983
FN_SYSOP   42232
FN_SYSOP_OLD1   71952
FTP_FIDO   0/2
FTSC_PUBLIC   0/13976
FUNNY   0/4886
GENEALOGY.EUR   0/71
GET_INFO   105
GOLDED   373/408
HAM   296/16711
HOLYSMOKE   0/6791
HOT_SITES   0/1
HTMLEDIT   0/71
HUB203   466
HUB_100   264
HUB_400   39
HUMOR   0/29
IC   379/2851
INTERNET   0/424
INTERUSER   0/3
IP_CONNECT   719
JAMNNTPD   0/233
JAMTLAND   0/47
KATTY_KORNER   0/41
LAN   0/16
LINUX-USER   0/19
LINUXHELP   0/1155
LINUX   0/22381
LINUX_BBS   0/957
mail   18.68
mail_fore_ok   249
MENSA   0/341
MODERATOR   0/102
MONTE   0/992
MOSCOW_OKLAHOMA   0/1245
MUFFIN   0/783
MUSIC   0/321
N203_STAT   938
N203_SYSCHAT   313
NET203   321
NET204   69
NET_DEV   0/10
NORD.ADMIN   0/101
NORD.CHAT   0/2572
NORD.FIDONET   189
NORD.HARDWARE   0/28
NORD.KULTUR   0/114
NORD.PROG   0/32
NORD.SOFTWARE   0/88
NORD.TEKNIK   0/58
NORD   0/453
OCCULT_CHAT   0/93
OS2BBS   0/787
OS2DOSBBS   0/580
OS2HW   0/42
OS2INET   0/37
OS2LAN   0/134
OS2PROG   0/36
OS2REXX   0/113
OS2USER-L   207
OS2   0/4831
OSDEBATE   0/18996
PASCAL   0/490
PERL   0/457
PHP   0/45
POINTS   0/405
POLITICS   0/29554
POL_INC   0/14731
PSION   103
R20_ADMIN   1133
R20_AMATORRADIO   0/2
R20_BEST_OF_FIDONET   16
R20_CHAT   0/897
R20_DEPP   0/3
R20_DEV   400
R20_ECHO2   1888
R20_ECHOPRES   0/35
R20_ESTAT   0/719
R20_FIDONETPROG...
...RAM.MYPOINT
  0/2
R20_FIDONETPROGRAM   0/22
R20_FIDONET   0/248
R20_FILEFIND   0/24
R20_FILEFOUND   0/22
R20_HIFI   0/3
R20_INFO2   3781
R20_INTERNET   0/12940
R20_INTRESSE   0/60
R20_INTR_KOM   0/99
R20_KANDIDAT.CHAT   42
R20_KANDIDAT   28
R20_KOM_DEV   112
R20_KONTROLL   0/13360
R20_KORSET   0/18
R20_LOKALTRAFIK   0/24
R20_MODERATOR   0/1852
R20_NC   76
R20_NET200   245
R20_NETWORK.OTH...
...ERNETS
  0/13
R20_OPERATIVSYS...
...TEM.LINUX
  0/44
R20_PROGRAMVAROR   0/1
R20_REC2NEC   534
R20_SFOSM   0/341
R20_SF   0/108
R20_SPRAK.ENGLISH   0/1
R20_SQUISH   107
R20_TEST   2
R20_WORST_OF_FIDONET   20
RAR   0/9
RA_MULTI   106
RA_UTIL   0/162
REGCON.EUR   0/2069
REGCON   0/13
SCIENCE   0/1206
SF   0/239
SHAREWARE_SUPPORT   0/5146
SHAREWRE   0/14
SIMPSONS   0/169
STATS_OLD1   0/2539.065
STATS_OLD2   0/2530
STATS_OLD3   0/2395.095
STATS_OLD4   0/1692.25
SURVIVOR   0/495
SYSOPS_CORNER   0/3
SYSOP   0/84
TAGLINES   0/112
TEAMOS2   0/4530
TECH   0/2617
TEST.444   0/105
TRAPDOOR   0/19
TREK   0/755
TUB   0/290
UFO   0/40
UNIX   0/1316
USA_EURLINK   0/102
USR_MODEMS   0/1
VATICAN   0/2740
VIETNAM_VETS   0/14
VIRUS   0/378
VIRUS_INFO   0/201
VISUAL_BASIC   0/473
WHITEHOUSE   0/5187
WIN2000   0/101
WIN32   0/30
WIN95   452/4291
WIN95_OLD1   0/70272
WINDOWS   1354/1517
WWB_SYSOP   0/419
WWB_TECH   140/810
ZCC-PUBLIC   0/1
ZEC   4

 
4DOS   0/134
ABORTION   0/7
ALASKA_CHAT   0/506
ALLFIX_FILE   0/1313
ALLFIX_FILE_OLD1   0/7997
ALT_DOS   0/152
AMATEUR_RADIO   0/1039
AMIGASALE   0/14
AMIGA   0/331
AMIGA_INT   0/1
AMIGA_PROG   0/20
AMIGA_SYSOP   0/26
ANIME   0/15
ARGUS   0/924
ASCII_ART   0/340
ASIAN_LINK   0/651
ASTRONOMY   0/417
AUDIO   0/92
AUTOMOBILE_RACING   0/105
BABYLON5   0/17862
BAG   135
BATPOWER   0/361
BBBS.ENGLISH   0/382
BBSLAW   0/109
BBS_ADS   0/5290
BBS_INTERNET   0/507
BIBLE   779/3563
BINKD   0/1119
BINKLEY   0/215
BLUEWAVE   0/2173
CABLE_MODEMS   0/25
CBM   0/46
CDRECORD   0/66
CDROM   0/20
CLASSIC_COMPUTER   0/378
COMICS   0/15
CONSPRCY   0/899
COOKING   41996
COOKING_OLD1   0/24719
COOKING_OLD2   0/40862
COOKING_OLD3   0/37489
COOKING_OLD4   31955/35496
COOKING_OLD5   9370
C_ECHO   0/189
C_PLUSPLUS   0/31
DIRTY_DOZEN   0/201
DOORGAMES   0/2333
DOS_INTERNET   0/196
duplikat   6102
ECHOLIST   17753/18295
EC_SUPPORT   0/318
ELECTRONICS   0/359
ELEKTRONIK.GER   1534
ENET.LINGUISTIC   0/13
ENET.POLITICS   0/4
ENET.SOFT   0/11701
ENET.SYSOP   34332
ENET.TALKS   0/32
ENGLISH_TUTOR   0/2000
EVOLUTION   0/1335
FDECHO   0/217
FDN_ANNOUNCE   5476/7068
FIDONEWS   25122
FIDONEWS_OLD1   0/49742
FIDONEWS_OLD2   0/35949
FIDONEWS_OLD3   0/30874
FIDONEWS_OLD4   0/37224
FIDO_SYSOP   12973
FIDO_UTIL   0/180
FILEFIND   0/209
FILEGATE   0/212
Möte HAM, 16711 texter
 lista första sista föregående nästa
Text 584, 777 rader
Skriven 2005-09-26 03:01:05 av Amsat List (1:323/120.0)
Ärende: 
========
SB KEPS @ AMSAT  $ORB05268.O
Orbital Elements  05268.OSCAR

HR AMSAT ORBITAL ELEMENTS FOR OSCAR SATELLITES
FROM WA5QGD FORT WORTH,TX September 25, 2005
Send SUBSCRIBE KEPS/UNSUBSCRIBE KEPS to majordomo@amsat.org only
BID: ORB05268.O
TO ALL RADIO AMATEURS BT

Satellite: AO-07
Catalog number: 07530
Epoch time:      05268.70809265
Element set:     480
Inclination:      101.6141 deg
RA of node:       312.8161 deg
Eccentricity:    0.0012040
Arg of perigee:   041.7070 deg
Mean anomaly:     318.4919 deg
Mean motion:   12.53570688 rev/day
Decay rate:       -2.8e-07 rev/day^2
Epoch rev:           41224
Checksum:              269

Satellite: AO-10
Catalog number: 14129
Epoch time:      05266.68083188
Element set:    0220
Inclination:      027.4553 deg
RA of node:       011.8297 deg
Eccentricity:    0.6031768
Arg of perigee:   223.6347 deg
Mean anomaly:     068.6595 deg
Mean motion:   02.05866932 rev/day
Decay rate:      -1.35e-06 rev/day^2
Epoch rev:           16756
Checksum:              320

Satellite: UO-11
Catalog number: 14781
Epoch time:      05268.58855879
Element set:     888
Inclination:      098.2080 deg
RA of node:       268.2174 deg
Eccentricity:    0.0009822
Arg of perigee:   042.1672 deg
Mean anomaly:     318.0280 deg
Mean motion:   14.79314759 rev/day
Decay rate:       4.58e-06 rev/day^2
Epoch rev:           15664
Checksum:              344

Satellite: RS-10/11
Catalog number: 18129
Epoch time:      05267.73282185
Element set:     795
Inclination:      082.9268 deg
RA of node:       164.5195 deg
Eccentricity:    0.0013222
Arg of perigee:   107.1238 deg
Mean anomaly:     253.1366 deg
Mean motion:   13.72764586 rev/day
Decay rate:        5.6e-07 rev/day^2
Epoch rev:           91473
Checksum:              320

Satellite: FO-20
Catalog number: 20480
Epoch time:      05267.86339724
Element set:    0021
Inclination:      099.0350 deg
RA of node:       063.1721 deg
Eccentricity:    0.0540578
Arg of perigee:   013.7284 deg
Mean anomaly:     347.7887 deg
Mean motion:   12.83348708 rev/day
Decay rate:       -7.0e-08 rev/day^2
Epoch rev:           73228
Checksum:              311

Satellite: RS-12/13
Catalog number: 21089
Epoch time:      05267.75593380
Element set:    0026
Inclination:      082.9247 deg
RA of node:       196.9932 deg
Eccentricity:    0.0029143
Arg of perigee:   158.7748 deg
Mean anomaly:     201.4624 deg
Mean motion:   13.74454557 rev/day
Decay rate:        1.8e-07 rev/day^2
Epoch rev:           73417
Checksum:              331

Satellite: RS-15
Catalog number: 23439
Epoch time:      05267.56175883
Element set:    0944
Inclination:      064.8190 deg
RA of node:       306.8349 deg
Eccentricity:    0.0166371
Arg of perigee:   299.0462 deg
Mean anomaly:     059.3883 deg
Mean motion:   11.27551277 rev/day
Decay rate:       -3.9e-07 rev/day^2
Epoch rev:           44259
Checksum:              346

Satellite: FO-29
Catalog number: 24278
Epoch time:      05267.67618493
Element set:      52
Inclination:      098.5326 deg
RA of node:       303.7603 deg
Eccentricity:    0.0349996
Arg of perigee:   278.5258 deg
Mean anomaly:     077.6370 deg
Mean motion:   13.52915523 rev/day
Decay rate:        1.8e-07 rev/day^2
Epoch rev:           44964
Checksum:              350

Satellite: SO-33
Catalog number: 25509
Epoch time:      05267.87297069
Element set:    0473
Inclination:      031.4328 deg
RA of node:       189.1173 deg
Eccentricity:    0.0356137
Arg of perigee:   317.2731 deg
Mean anomaly:     040.0711 deg
Mean motion:   14.28033229 rev/day
Decay rate:       1.92e-06 rev/day^2
Epoch rev:           36108
Checksum:              296

Satellite: AO-40
Catalog number: 26609
Epoch time:      05267.65575785
Element set:    0610
Inclination:      007.5305 deg
RA of node:       278.7868 deg
Eccentricity:    0.7924334
Arg of perigee:   085.2689 deg
Mean anomaly:     351.0528 deg
Mean motion:   01.25583604 rev/day
Decay rate:      -4.58e-06 rev/day^2
Epoch rev:           02251
Checksum:              334

Satellite: VO-52
Catalog number: 28650
Epoch time:      05267.67313786
Element set:    0135
Inclination:      097.9011 deg
RA of node:       340.0249 deg
Eccentricity:    0.0028055
Arg of perigee:   143.0059 deg
Mean anomaly:     217.3092 deg
Mean motion:   14.80942969 rev/day
Decay rate:       2.51e-06 rev/day^2
Epoch rev:           02108
Checksum:              294

/EX
SB KEPS @ AMSAT  $ORB05268.D
Orbital Elements  05268.MICROS

HR AMSAT ORBITAL ELEMENTS FOR THE MICROSATS
FROM WA5QGD FORT WORTH,TX September 25, 2005
Send SUBSCRIBE KEPS/UNSUBSCRIBE KEPS to majordomo@amsat.org only
BID: ORB05268.D
TO ALL RADIO AMATEURS BT

Satellite: UO-14
Catalog number: 20437
Epoch time:      05267.52279566
Element set:    0880
Inclination:      098.1979 deg
RA of node:       271.6926 deg
Eccentricity:    0.0009890
Arg of perigee:   261.7898 deg
Mean anomaly:     098.2170 deg
Mean motion:   14.31426959 rev/day
Decay rate:        2.4e-07 rev/day^2
Epoch rev:           81824
Checksum:              353

Satellite: AO-16
Catalog number: 20439
Epoch time:      05267.57888484
Element set:    0565
Inclination:      098.2017 deg
RA of node:       287.3187 deg
Eccentricity:    0.0010103
Arg of perigee:   268.4765 deg
Mean anomaly:     091.5265 deg
Mean motion:   14.31692381 rev/day
Decay rate:        1.6e-07 rev/day^2
Epoch rev:           81831
Checksum:              324

Satellite: WO-18
Catalog number: 20441
Epoch time:      05267.57850413
Element set:    0765
Inclination:      098.2108 deg
RA of node:       291.8065 deg
Eccentricity:    0.0010592
Arg of perigee:   267.7331 deg
Mean anomaly:     092.2643 deg
Mean motion:   14.31764546 rev/day
Decay rate:        3.4e-07 rev/day^2
Epoch rev:           81837
Checksum:              308

